Regional Weather Roundup
Issued by NWS

Home | Current Version | Previous Version | Text Only | Print | Product List | Glossary Off
Versions: 1 2 3 4 5 6 7 8 9 10 11 12 13 14 15 16 17 18 19 20 21 22 23 24 25 26 27 28 29 30 31 32 33 34 35 36 37 38 39 40 41 42 43 44 45 46 47 48 49 50

000
ASUS43 KOAX 211002
RWRNE

WEATHER ROUNDUP FOR NEBRASKA
NATIONAL WEATHER SERVICE OMAHA NE
400 AM CST SUN DEC 21 2014

NOTES: SATELLITE DATA IS BEING USED TO AUGMENT CLOUD COVER ABOVE
       12000 FEET.
       "FAIR" INDICATES FEW OR NO CLOUDS BELOW 12,000 FEET WITH NO
       SIGNIFICANT WEATHER AND/OR OBSTRUCTIONS TO VISIBILITY.

  * THESE STATIONS DO NOT REPORT WEATHER SUCH AS RAIN...SNOW OR FOG.

NEZ001>004-019>022-054>056-211100-
NEBRASKA PANHANDLE

CITY           SKY/WX    TMP DP  RH WIND       PRES   REMARKS
SCOTTSBLUFF    CLEAR     20  16  84 N3        29.78F
ALLIANCE       CLEAR     28  22  78 SW8       29.76F WCI  20
CHADRON        CLEAR     22  18  85 S3        29.73F
SIDNEY         MOCLDY    28  22  78 SW5       29.82F WCI  23
$$

NEZ057>060-069>072-079>082-211100-
SOUTHWEST NEBRASKA

CITY           SKY/WX    TMP DP  RH WIND       PRES   REMARKS
NORTH PLATTE   CLOUDY    27  24  89 CALM      29.84F
IMPERIAL       CLOUDY    34  26  72 NW7       29.83F WCI  28
MCCOOK         CLOUDY    32  27  81 W3        29.85F
$$

NEZ005>010-023>029-035>040-094-211100-
NORTH CENTRAL NEBRASKA

CITY           SKY/WX    TMP DP  RH WIND       PRES   REMARKS
VALENTINE      MOCLDY    26  23  88 SW6       29.76F WCI  19
BROKEN BOW     PTCLDY    29  25  85 SW3       29.83F
$$

NEZ041-046>049-061>064-073>077-083>087-211100-
SOUTH CENTRAL NEBRASKA

CITY           SKY/WX    TMP DP  RH WIND       PRES   REMARKS
GRAND ISLAND   CLEAR     28  27  96 S6        29.88S FOG     WCI  22
HASTINGS       MOCLDY    32  30  92 S7        29.87F FOG     WCI  26
KEARNEY *      MOCLDY    32  28  86 SW6       29.86F WCI  26
$$

NEZ011>018-030>034-042>045-211100-
NORTHEAST NEBRASKA

CITY           SKY/WX    TMP DP  RH WIND       PRES   REMARKS
NORFOLK        FOG       33  33 100 SW7       29.86F VSB 1   WCI  27
COLUMBUS *     CLOUDY    36  32  87 SW7       29.90F WCI  30
TEKAMAH        CLOUDY    37  35  92 S13       29.91F WCI  29
$$

NEZ050>053-065>068-078-088>093-211100-
SOUTHEAST NEBRASKA

CITY           SKY/WX    TMP DP  RH WIND       PRES   REMARKS
LINCOLN        CLOUDY    38  36  92 S12       29.94F WCI  30
OMAHA EPPLEY   CLOUDY    36  34  92 SE15      29.96F FOG     WCI  27
FALLS CITY     CLOUDY    35  33  92 SE7       30.02F WCI  29
$$

NEZ044-045-051>053-067-211100-
OMAHA AREA

CITY           SKY/WX    TMP DP  RH WIND       PRES   REMARKS
OMAHA EPPLEY   CLOUDY    36  34  92 SE15      29.96F FOG     WCI  27
OFFUTT AFB     CLOUDY    36  35  95 SE9       29.95F WCI  29
$$


USA.gov is the U.S. government's official web portal to all federal, state and local government web resources and services.